www.pogodaiklimat.ru
ПОГОДА на Роатане
Время
(UTC), дата
12 16.10
15 16.10
18 16.10
21 16.10
00 17.10
12 17.10
15 17.10
18 17.10
21 17.10
00 18.10
12 18.10
21 18.10
12 19.10
15 19.10
18 19.10
21 19.10
00 20.10
06 20.10
12 20.10
15 20.10
18 20.10
21 20.10
00 21.10
12 22.10
15 22.10
18 22.10
21 22.10
Ветер
(напр.,м/с)
Видим. Явления Облачность Т
(С)
Тd
(С)
f
(%)
Тe
(С)
Тes
(С)
Комфортность P
(гПа)
Po
(гПа)
Тmin
(С)
Tmax
(С)
R
(мм)
R24
(мм)
S
(см)
СВ 2 10 км мгла 4/1 600 м
[Cb cap As op]
+31.6 +25.5 70 +36 +36 очень
душно
1012.3 1012.1 +25.5 +31.6 2
В 5 10 км мгла 9/0 600 м
[Ac As Cs]
+29.5 +24.8 76 +42 +45 опасность
перегрева
1014.3 1014.1
В 8 10 км мгла 9/0 600 м
[Ac As Cs]
+30.0 +25.5 77 +43 +46 опасность
перегрева
1013.3 1013.1 +25.5 +30.0
В 13 10 км мгла 9/6 600 м
[Cu Sc As op Cs]
+26.8 +21.4 72 +34 +34 очень
душно
1011.7 1011.5
В 8 10 км {ливн. дождь} 9/8 600 м
[Cb calv Ac und Cs]
+31.2 +25.5 72 +36 +36 очень
душно
1010.7 1010.5 +25.5 +31.2 8.1
штиль 0 20 км мгла 4/3 660 м
[Cb cap Ac lent Ci fib]
+25.6 +23.3 87 +34 +34 очень
душно
1013.6 1013.4 +25.2 +31.2
В 8 16 км мгла 9/9 660 м
[Sc diur, vesp Ac und Cs]
+26.9 +23.0 79 +36 +36 очень
душно
1015.6 1015.4
С 4 18 км мгла 9/3 660 м
[Cb cap Ac As]
+26.7 +23.4 82 +36 +40 очень
душно
1014.4 1014.2 +25.2 +27.7
СВ 2 18 км мгла 9/9 720 м
[Sc diur, vesp Ac und Cs]
+28.3 +24.5 80 +40 +42 очень
душно
1011.8 1011.6
С 2 16 км мгла 8/3 720 м
[Cb cap Ac lent Cs]
+26.9 +23.8 83 +37 +37 очень
душно
1012.3 1012.1 +25.2 +29.3
штиль 0 10 км мгла 9/6 300 м
[Sc diur, vesp Ac und Cs]
+29.3 +24.5 75 +40 +40 очень
душно
1013.0 1012.8 +24.5 +29.3 7
СВ 2 18 км мгла 9/9 720 м
[Sc diur, vesp Ac und Cs]
+28.3 +24.5 80 1011.8
СЗ 2 10 км мгла 9/3 600 м
[Cu hum Ac trans Ci fib]
+24.7 +23.9 95 +34 +34 очень
душно
1010.9 1010.7 +24.5 +29.2 20
З 2 10 км в посл. час дождь {туман} 9/8 600 м
[Cb calv Ac und Cs]
+26.0 +24.4 91 +36 +40 очень
душно
1011.9 1011.7 1
З 3 10 км мгла {дождь} 9/8 600 м
[Cb cap Ac trans]
+28.0 +24.6 82 +40 +42 очень
душно
1010.6 1010.4 +24.5 +28.0 3
СЗ 3 10 км мгла 9/8 600 м
[Cb cap Ac trans]
+28.3 +24.7 81 +40 +41 очень
душно
1008.6 1008.4
З 2 10 км мгла {дождь} 9/5 600 м
[Cb cap Ac trans]
+26.5 +24.6 89 +37 +37 очень
душно
1008.9 1008.7 +24.5 +29.0 0.5 24.3
СВ 2 4000 м слаб. дождь {гроза} 9/8 240 м
[Sc Ac trans]
+20.0 +20.0 100 +24 +24 комфорт 1013.0 901.7 +18.7 +27.1 7
З 2 16 км мгла 8/0 600 м
[Ac As Cs]
+29.0 +25.3 80 +36 +36 очень
душно
1008.6 1008.4 +25.3 +29.0 3
З 6 18 км мгла 9/9 540 м
[Cb cap Ci fib]
+28.6 +24.8 80 +41 +41 опасность
перегрева
1010.5 1010.3
ЮЗ 4 6000 м слаб. дождь 9/6 300 м
[Sc diur, vesp Ac und Cs]
+28.7 +25.3 82 +39 +41 очень
душно
1009.4 1009.2 +25.3 +28.7 3
СЗ 3 16 км мгла {дождь} 9/4 720 м
[Cb cap Ac As]
+26.9 +23.8 83 +37 +39 очень
душно
1007.8 1006.6 0.0
штиль 0 16 км мгла {дождь} 8/3 720 м
[Cb cap Ac trans Cs]
+27.1 +24.2 84 +38 +38 очень
душно
1007.7 1007.5 +25.3 +29.7 0.0 6.6
штиль 0 10 км мгла 9/1 750 м
[Cu hum Cs]
+24.7 +24.3 98 +34 +34 очень
душно
1009.9 1009.7 +24.5 +29.7
ЮЗ 4 10 км мгла 8/5 600 м
[Cb calv Ac und Cs]
+29.2 +24.5 76 +41 +44 опасность
перегрева
1011.8 1011.6
З 3 10 км мгла {гроза} 9/8 600 м
[Cb calv Ac und Cs]
+28.7 +24.2 77 +40 +45 очень
душно
1010.8 1010.6 +24.5 +29.9 1
СЗ 3 10 км мгла 5/3 600 м
[Cu hum Ac trans Ci fib]
+29.8 +24.8 75 +43 +46 опасность
перегрева
1008.8 1008.6
Местоположение метеостанции Роатан (Гондурас): широта 16.32 долгота -86.51 высота над уровнем моря 2 м.
В архиве по умолчанию представлена погода на Роатане за последнюю неделю. Архивные данные за месяц целиком и за предыдущие месяцы, начиная с января 2011 года, Вы можете получить, выбрав интересующий диапазон дат из раскрывающегося списка и нажав кнопку "Найти!".
*Определитесь, кто Вы:
Внимание! Время в таблицах - всемирное. Для получения местного времени необходимо прибавить поправку, которая равна -6 ч.
Смотрите также архив погоды в соседних городах и на ближайших метеорологических станциях:
Партнеры нашего сайта:      
Пояснения к столбцам:
  • Ветер - указаны скорость ветра в м/с - средняя за 10 мин, порывы в срок и между сроками (в фигурных скобках) и направление, откуда дует ветер: С - северный,
  • СВ - северо-восточный, В - восточный, ЮВ - юго-восточный, Ю - южный, ЮЗ - юго-западный, З - западный, СЗ - северо-западный.
  • Видимость - горизонтальная дальность видимости в метрах или километрах. При видимости от 1 до 10 км при отсутствии осадков обычно наблюдается дымка, при ухудшении видимости до 1 км и менее - туман. В сухую погоду видимость может ухудшаться дымом, пылью или мглою.
  • Явления - указаны атмосферные явления, наблюдавшиеся в срок или в последний час перед сроком; фигурными скобками обозначены явления, наблюдавшиеся между сроками (за 1-3 часа до срока); квадратными скобками обозначены град или гололедные отложения с указанием их диаметра в мм.
  • Облачность - указаны через наклонную черту общая и нижняя облачность в баллах и высота нижней границы облаков в метрах; квадратными скобками обозначены формы облаков: Ci - перистые, Cs - перисто-слоистые, Cc - перисто-кучевые, Ac - высококучевые, As - высокослоистые, Sc - слоисто-кучевые, Ns - слоисто-дождевые, Cu - кучевые, Cb - кучево-дождевые. Подробнее классификацию облаков см. в Атласе облаков (PDF).
  • T - Температура воздуха - температура, измеренная на высоте 2 м над землей.
  • Td - Температура точки росы - температура, при понижении до которой содержащийся в воздухе водяной пар достигнет насыщения.
  • f - Относительная влажность воздуха - влажноcть воздуха, измеренная на высоте 2 м над землей.
  • Te - Эффективная температура - температура, которую ощущает одетый по сезону человек в тени. Характеристика душности погоды. При расчете учитывается влияние влажности воздуха и скорости ветра на теплоощущения человека.
  • Tes - Эффективная температура на солнце - температура, которую ощущает человек, с поправкой на солнечный нагрев. Характеристика знойности погоды. Зависит от высоты солнца над горизонтом, облачности и скорости ветра. Ночью, в пасмурную погоду, а также при ветре 12 м/с и более поправка равна нулю.
  • P - Атмосферное давление - приведенное к уровню моря атмосферное давление.
  • Po - Атмосферное давление - измеренное на уровне метеостанции атмосферное давление.
  • Tmin - Минимальная температура - минимум температуры воздуха на высоте 2 м над землей.
  • Tmax - Максимальная температура - максимум температуры воздуха на высоте 2 м над землей.
  • R - Количество осадков - Количество выпавших осадков за период времени, мм. При наведении курсора мыши на число - период времени, за который выпало указанное количество осадков.
  • R24 - Количество осадков - Количество выпавших осадков за 24 часа, мм.
  • S - Снежный покров - Высота снежного покрова, см. При наведении курсора мыши на число - состояние снежного покрова и степень покрытия местности в баллах.